CW5842 Weather Reports


time (UTC)temp
F
wind
direction
speed
knots
gust
knots
rain 1hr
in
rain 24hr
in
rain mn
in
humidity
%
barometer
mb
20260507012521 61 0 0.0 0.0 0.00 0.01 0.01 77 1015.1
20260507012024 61 0 0.0 0.0 0.00 0.01 0.01 77 1015.0
20260507011538 61 0 0.0 0.0 0.00 0.01 0.01 77 1014.9
20260507011018 62 0 0.0 0.9 0.00 0.01 0.01 77 1014.7
20260507010521 62 0 0.0 0.9 0.00 0.01 0.01 76 1014.6
20260507010041 62 0 0.0 0.9 0.00 0.01 0.01 76 1014.5
20260507005519 62 38 0.0 0.9 0.00 0.01 0.01 76 1014.5
20260507005020 62 38 0.0 2.6 0.00 0.01 0.01 76 1014.5
20260507004535 62 0 0.0 2.6 0.00 0.01 0.01 76 1014.4
20260507004023 62 36 0.9 3.5 0.00 0.01 0.01 75 1014.3
20260507003519 62 40 0.9 5.2 0.00 0.01 0.01 75 1014.4
20260507003039 62 49 0.9 5.2 0.00 0.01 0.01 74 1014.4
20260507002518 62 111 1.7 5.2 0.00 0.01 0.01 74 1014.4
20260507002021 62 42 0.9 3.5 0.00 0.01 0.01 74 1014.5
20260507001540 62 360 0.9 3.5 0.00 0.01 0.01 75 1014.5
20260507001020 62 53 0.9 3.5 0.00 0.01 0.01 75 1014.4
20260507000522 62 0 0.9 4.3 0.00 0.01 0.01 74 1014.5
20260507000041 62 0 1.7 5.2 0.00 0.01 0.01 74 1014.6
20260506235520 62 46 1.7 5.2 0.00 0.01 0.01 73 1014.5
20260506235019 62 15 1.7 3.5 0.00 0.01 0.01 74 1014.5
20260506234537 62 49 1.7 5.2 0.00 0.01 0.01 74 1014.4
20260506234019 62 40 2.6 5.2 0.00 0.01 0.01 74 1014.4
20260506233519 62 32 0.9 4.3 0.00 0.01 0.01 74 1014.3
20260506233042 62 15 0.9 5.2 0.00 0.01 0.01 74 1014.3
20260506232518 62 32 1.7 7.8 0.00 0.01 0.01 74 1014.4
20260506232019 62 48 3.5 9.6 0.00 0.01 0.01 74 1014.3
20260506231534 62 87 2.6 9.6 0.00 0.01 0.01 74 1014.2
20260506231018 62 53 3.5 7.0 0.00 0.01 0.01 74 1013.9
20260506230518 62 74 2.6 7.0 0.00 0.01 0.01 74 1014.1
20260506230038 63 352 1.7 7.0 0.00 0.01 0.01 73 1014.0
20260506225522 63 34 0.9 7.0 0.00 0.01 0.01 73 1014.0
20260506225022 63 36 2.6 7.0 0.00 0.01 0.01 73 1014.1
20260506224538 62 0 1.7 8.7 0.00 0.01 0.01 74 1013.9
20260506224020 62 360 1.7 8.7 0.00 0.01 0.01 73 1013.9
20260506223519 62 360 2.6 8.7 0.00 0.01 0.01 74 1013.8
20260506223037 62 0 0.9 5.2 0.00 0.01 0.01 74 1013.9
20260506222522 62 360 0.9 5.2 0.00 0.01 0.01 74 1013.9
20260506222023 62 360 0.0 5.2 0.00 0.01 0.01 74 1013.8
20260506221537 62 360 1.7 5.2 0.00 0.01 0.01 73 1013.7
20260506221026 62 360 1.7 5.2 0.00 0.01 0.01 73 1013.9
20260506220521 62 360 0.9 3.5 0.00 0.01 0.01 73 1013.9
20260506220036 62 0 0.0 4.3 0.00 0.01 0.01 74 1014.1
20260506215525 61 0 0.9 4.3 0.00 0.01 0.01 74 1013.9
20260506215023 61 360 1.7 5.2 0.00 0.01 0.01 73 1013.9
20260506214537 62 360 2.6 5.2 0.00 0.01 0.01 72 1014.0
20260506214018 62 360 0.0 4.3 0.00 0.01 0.01 73 1014.2
20260506213518 62 360 0.9 5.2 0.00 0.01 0.01 74 1014.1
20260506213038 61 360 0.9 5.2 0.00 0.01 0.01 74 1014.3
20260506212521 62 53 2.6 5.2 0.00 0.01 0.01 72 1014.2
20260506212018 62 0 0.9 7.8 0.00 0.01 0.01 73 1014.3
20260506211538 62 340 1.7 7.8 0.00 0.01 0.01 73 1014.0
20260506211022 62 45 1.7 4.3 0.00 0.01 0.01 72 1014.1
20260506210522 62 5 0.0 5.2 0.00 0.01 0.01 73 1014.1
20260506210038 62 34 1.7 5.2 0.00 0.01 0.01 73 1014.3
20260506205524 62 302 0.9 4.3 0.00 0.01 0.01 73 1014.2
20260506205021 62 279 0.9 8.7 0.00 0.01 0.01 73 1014.2
20260506204543 61 46 1.7 8.7 0.00 0.01 0.01 73 1014.1
20260506204021 61 311 1.7 9.6 0.00 0.01 0.01 73 1014.2
20260506203521 61 360 3.5 9.6 0.00 0.01 0.01 74 1014.2
20260506203037 61 19 1.7 6.1 0.00 0.01 0.01 75 1014.1
20260506202523 60 297 0.9 7.8 0.00 0.01 0.01 75 1014.4
20260506202020 60 360 1.7 7.8 0.00 0.01 0.01 75 1014.5
20260506201537 60 329 2.6 6.1 0.00 0.01 0.01 75 1014.8
20260506201021 60 314 2.6 8.7 0.00 0.01 0.01 75 1014.6
20260506200522 59 360 2.6 8.7 0.00 0.01 0.01 75 1014.6
20260506200039 60 56 1.7 7.0 0.00 0.01 0.01 75 1014.8
20260506195518 59 29 3.5 8.7 0.00 0.01 0.01 75 1015.0
20260506195018 59 5 2.6 8.7 0.00 0.01 0.01 76 1015.0
20260506194538 59 55 1.7 7.0 0.00 0.01 0.01 76 1014.7
20260506194021 59 360 0.9 10.4 0.00 0.01 0.01 78 1014.9
20260506193518 58 360 1.7 10.4 0.00 0.01 0.01 78 1014.9
20260506193037 58 360 2.6 7.8 0.00 0.01 0.01 78 1015.1
20260506192526 58 360 2.6 7.0 0.00 0.01 0.01 78 1015.1
20260506192022 57 0 1.7 7.0 0.00 0.01 0.01 79 1015.3
20260506191537 57 360 1.7 7.0 0.00 0.01 0.01 79 1015.1
20260506191021 57 360 0.9 7.0 0.00 0.01 0.01 80 1015.2
20260506190519 56 360 2.6 7.0 0.00 0.01 0.01 80 1015.2
20260506190037 56 360 0.9 5.2 0.00 0.01 0.01 81 1015.4
20260506185518 55 360 1.7 7.0 0.00 0.01 0.01 81 1015.4
20260506185019 55 9 1.7 7.0 0.00 0.01 0.01 81 1015.5
20260506184537 55 360 1.7 5.2 0.00 0.01 0.01 81 1015.6
20260506184018 55 331 1.7 5.2 0.00 0.01 0.01 81 1015.7
20260506183518 55 0 0.0 6.1 0.00 0.01 0.01 81 1015.9
20260506183039 55 360 1.7 6.1 0.00 0.01 0.01 81 1016.1
20260506182521 55 352 0.9 4.3 0.00 0.01 0.01 81 1015.9
20260506182022 55 342 0.9 7.0 0.00 0.01 0.01 81 1015.9
20260506181538 55 41 2.6 7.0 0.00 0.01 0.01 81 1016.0
20260506181022 55 5 2.6 5.2 0.00 0.01 0.01 81 1015.8
20260506180522 55 323 1.7 7.0 0.00 0.01 0.01 81 1016.1
20260506180046 55 0 0.9 7.0 0.00 0.01 0.01 81 1016.1
20260506175522 55 313 1.7 7.0 0.00 0.01 0.01 81 1016.0
20260506175023 55 326 1.7 6.1 0.00 0.01 0.01 81 1015.8
20260506174541 55 352 0.9 8.7 0.00 0.01 0.01 81 1015.6
20260506174021 55 352 0.9 8.7 0.00 0.01 0.01 82 1015.5
20260506173519 54 317 2.6 8.7 0.00 0.01 0.01 82 1014.9
20260506173039 54 0 1.7 12.2 0.00 0.01 0.01 82 1014.6
20260506172520 54 26 2.6 12.2 0.00 0.01 0.01 81 1014.6
20260506172021 54 67 2.6 8.7 0.00 0.01 0.01 81 1014.6
20260506171540 54 24 2.6 8.7 0.00 0.01 0.01 82 1014.4
20260506171018 54 350 2.6 8.7 0.00 0.01 0.01 82 1014.7
20260506170518 55 23 1.7 7.0 0.00 0.01 0.01 82 1014.6
20260506170050 54 314 0.9 7.8 0.00 0.01 0.01 82 1014.6
20260506165522 54 26 2.6 7.8 0.00 0.01 0.01 82 1014.9
20260506165018 54 19 2.6 7.8 0.00 0.01 0.01 82 1015.0
20260506164538 54 0 2.6 7.8 0.00 0.01 0.01 82 1015.2
20260506164022 54 360 0.9 6.1 0.00 0.01 0.01 82 1015.0
20260506163519 54 309 0.9 7.0 0.00 0.01 0.01 82 1014.9
20260506163056 54 15 1.7 7.0 0.00 0.01 0.01 82 1015.0
20260506162525 54 329 0.9 7.0 0.00 0.01 0.01 82 1015.0
20260506162024 54 30 0.9 8.7 0.00 0.01 0.01 82 1015.2
20260506161537 54 16 0.9 8.7 0.00 0.01 0.01 82 1015.3
20260506161021 54 360 1.7 8.7 0.00 0.01 0.01 82 1015.2
20260506160522 54 53 1.7 7.8 0.00 0.01 0.01 82 1015.3
20260506160036 54 9 0.9 7.8 0.00 0.01 0.01 82 1015.1
20260506155522 54 360 3.5 7.8 0.00 0.01 0.01 82 1015.0
20260506155018 54 360 0.9 9.6 0.00 0.01 0.01 82 1014.8
20260506154555 53 0 1.7 9.6 0.00 0.01 0.01 82 1014.9
20260506154026 53 18 3.5 7.0 0.00 0.01 0.01 82 1014.9
20260506153517 53 55 2.6 7.0 0.00 0.01 0.01 82 1015.3
20260506153049 53 303 0.0 10.4 0.00 0.01 0.01 82 1015.0
20260506152522 53 327 4.3 10.4 0.00 0.01 0.01 82 1014.6
20260506152023 52 5 1.7 10.4 0.00 0.01 0.01 82 1014.3
20260506151538 52 27 6.1 10.4 0.01 0.01 0.01 82 1014.2
20260506151021 52 16 3.5 11.3 0.01 0.01 0.01 82 1014.2
20260506150522 52 13 3.5 11.3 0.01 0.01 0.01 82 1013.8
20260506150037 52 28 3.5 8.7 0.01 0.01 0.01 82 1013.9
20260506145525 52 18 1.7 7.8 0.01 0.01 0.01 82 1015.8
20260506145021 52 323 1.7 7.8 0.01 0.01 0.01 82 1016.0
20260506144537 52 291 2.6 6.1 0.01 0.01 0.01 82 1016.2
20260506144021 52 336 1.7 6.1 0.01 0.01 0.01 82 1016.4
20260506143522 53 59 0.9 6.1 0.01 0.01 0.01 82 1015.5
20260506143046 53 332 0.9 7.0 0.01 0.01 0.01 82 1015.9
20260506142522 53 297 1.7 7.0 0.01 0.01 0.01 82 1015.7
20260506142019 53 11 1.7 7.0 0.01 0.01 0.01 82 1015.5
20260506141542 53 315 1.7 10.4 0.00 0.00 0.00 81 1015.4
20260506141021 53 9 1.7 10.4 0.00 0.00 0.00 81 1015.9
20260506140525 53 21 2.6 7.8 0.00 0.00 0.00 80 1016.4
20260506140039 53 338 1.7 7.8 0.00 0.00 0.00 80 1016.9
20260506135522 53 298 1.7 8.7 0.00 0.00 0.00 80 1015.9
20260506135022 54 298 1.7 8.7 0.00 0.00 0.00 80 1015.6
20260506134537 54 308 3.5 8.7 0.00 0.00 0.00 80 1014.4
20260506134025 54 352 2.6 10.4 0.00 0.00 0.00 80 1013.3
20260506133518 54 10 1.7 10.4 0.00 0.00 0.00 79 1014.8
20260506133039 54 344 1.7 7.8 0.00 0.00 0.00 79 1014.6
20260506132520 54 337 0.9 5.2 0.00 0.00 0.00 79 1014.6
20260506132021 54 343 1.7 6.1 0.00 0.00 0.00 79 1014.6
20260506131551 55 17 1.7 7.0 0.00 0.00 0.00 79 1014.9
20260506131023 55 333 0.9 8.7 0.00 0.00 0.00 79 1014.2
20260506130519 55 5 2.6 8.7 0.00 0.00 0.00 78 1014.1
20260506130037 55 5 1.7 7.0 0.00 0.00 0.00 78 1014.0
20260506125518 55 325 0.9 7.0 0.00 0.00 0.00 78 1013.7
20260506125018 55 15 1.7 7.0 0.00 0.00 0.00 78 1013.7
20260506124536 55 33 2.6 7.8 0.00 0.00 0.00 78 1013.5
20260506124018 55 10 1.7 7.8 0.00 0.00 0.00 77 1013.3
20260506123521 56 330 1.7 7.8 0.00 0.00 0.00 77 1013.4
20260506123038 56 40 2.6 9.6 0.00 0.00 0.00 77 1013.1
20260506122523 56 342 1.7 9.6 0.00 0.00 0.00 77 1013.2
20260506122021 56 305 1.7 9.6 0.00 0.00 0.00 77 1013.1
20260506121542 56 333 0.9 7.0 0.00 0.00 0.00 77 1013.0
20260506121022 57 292 0.9 7.0 0.00 0.00 0.00 76 1012.8
20260506120521 57 296 2.6 6.1 0.00 0.00 0.00 76 1012.8
20260506120037 57 313 0.9 6.1 0.00 0.00 0.00 76 1012.7
20260506115522 57 294 1.7 6.1 0.00 0.00 0.00 76 1012.6
20260506115021 57 24 0.9 5.2 0.00 0.00 0.00 76 1012.7
20260506114544 58 319 1.7 5.2 0.00 0.00 0.00 75 1012.7
20260506114021 58 331 0.9 7.8 0.00 0.00 0.00 76 1012.7
20260506113521 58 360 1.7 7.8 0.00 0.00 0.00 76 1012.6
20260506113036 59 352 1.7 7.8 0.00 0.00 0.00 76 1012.6
20260506112521 59 328 2.6 7.8 0.00 0.00 0.00 76 1012.8
20260506112025 59 324 0.9 4.3 0.00 0.00 0.00 77 1012.6
20260506111538 59 14 0.9 4.3 0.00 0.00 0.00 77 1012.6
20260506111022 59 329 0.9 4.3 0.00 0.00 0.00 77 1012.4
20260506110525 59 0 0.9 4.3 0.00 0.00 0.00 77 1012.5
20260506110038 59 349 0.9 7.0 0.00 0.00 0.00 77 1012.4
20260506105521 59 346 0.9 7.0 0.00 0.00 0.00 77 1012.2
20260506105022 59 320 1.7 4.3 0.00 0.00 0.00 77 1012.1
20260506104538 59 11 2.6 4.3 0.00 0.00 0.00 77 1011.8
20260506104021 59 27 0.9 4.3 0.00 0.00 0.00 77 1011.9
20260506103522 60 13 0.9 8.7 0.00 0.00 0.00 77 1011.7
20260506103037 60 339 0.9 8.7 0.00 0.00 0.00 77 1011.5
20260506102524 60 30 1.7 7.8 0.00 0.00 0.00 77 1011.4
20260506102022 60 49 2.6 7.8 0.00 0.00 0.00 77 1011.4
20260506101537 60 5 1.7 6.1 0.00 0.00 0.00 77 1011.5
20260506101021 60 24 0.9 3.5 0.00 0.00 0.00 77 1011.4
20260506100518 60 0 0.9 3.5 0.00 0.00 0.00 77 1011.4
20260506100036 60 34 0.9 3.5 0.00 0.00 0.00 77 1011.4
20260506095518 60 316 0.9 5.2 0.00 0.00 0.00 77 1011.2
20260506095022 60 336 0.9 5.2 0.00 0.00 0.00 77 1011.1
20260506094559 61 360 0.9 5.2 0.00 0.00 0.00 77 1011.2
20260506094019 61 0 0.0 3.5 0.00 0.00 0.00 77 1011.1
20260506093518 61 346 0.9 4.3 0.00 0.00 0.00 77 1010.9
20260506093038 61 15 0.9 4.3 0.00 0.00 0.00 77 1010.7
20260506092522 61 0 0.9 4.3 0.00 0.00 0.00 77 1010.7
20260506092019 61 0 0.9 5.2 0.00 0.00 0.00 77 1010.7
20260506091538 61 323 0.9 5.2 0.00 0.00 0.00 77 1010.7
20260506091021 61 322 0.9 3.5 0.00 0.00 0.00 77 1010.6
20260506090521 61 15 0.9 4.3 0.00 0.00 0.00 77 1010.8
20260506090037 61 344 0.0 7.0 0.00 0.00 0.00 77 1010.8
20260506085521 61 352 1.7 7.0 0.00 0.00 0.00 76 1010.9
20260506085020 61 46 1.7 5.2 0.00 0.00 0.00 76 1010.8
20260506084537 61 43 0.9 2.6 0.00 0.00 0.00 76 1010.8
20260506084021 61 25 0.9 5.2 0.00 0.00 0.00 77 1010.8
20260506083521 61 22 0.9 5.2 0.00 0.00 0.00 76 1010.7
20260506083037 61 5 1.7 7.0 0.00 0.00 0.00 76 1010.6
20260506082518 62 5 1.7 7.0 0.00 0.00 0.00 76 1010.6
20260506082022 62 5 0.9 4.3 0.00 0.00 0.00 76 1010.5
20260506081537 62 5 0.9 4.3 0.00 0.00 0.00 76 1010.6
20260506081020 62 49 1.7 4.3 0.00 0.00 0.00 76 1010.5
20260506080522 62 11 0.9 4.3 0.00 0.00 0.00 76 1010.6
20260506073524 63 344 0.9 4.3 0.00 0.00 0.00 76 1010.4
20260506073042 63 360 0.9 6.1 0.00 0.00 0.00 76 1010.3
20260506072521 63 0 0.0 6.1 0.00 0.00 0.00 75 1010.4
20260506072021 63 39 2.6 7.0 0.00 0.00 0.00 75 1010.2
20260506071537 63 38 2.6 7.0 0.00 0.00 0.00 75 1010.2
20260506071018 63 38 2.6 5.2 0.00 0.00 0.00 75 1010.3
20260506070521 63 15 1.7 5.2 0.00 0.00 0.00 75 1010.2
20260506062022 64 349 0.9 4.3 0.00 0.00 0.00 74 1010.1
20260506061538 64 5 0.9 3.5 0.00 0.00 0.00 73 1009.8
20260506061022 64 340 0.0 2.6 0.00 0.00 0.00 74 1010.0
20260506060520 64 352 0.9 3.5 0.00 0.00 0.00 73 1009.9
20260506051021 66 298 0.9 5.2 0.00 0.00 0.00 71 1010.1
20260506050526 66 5 0.9 5.2 0.00 0.00 0.00 71 1010.0
20260506045022 67 22 0.9 5.2 0.00 0.00 0.00 70 1009.9
20260506044545 67 11 0.9 6.1 0.00 0.00 0.00 70 1009.9
20260506044021 67 352 0.9 7.8 0.00 0.00 0.00 70 1009.6
20260506043520 67 5 1.7 8.7 0.00 0.00 0.00 70 1009.9
20260506043037 67 40 2.6 8.7 0.00 0.00 0.00 69 1009.8
20260506042521 68 19 1.7 7.0 0.00 0.00 0.00 69 1009.8
20260506042023 68 0 1.7 10.4 0.00 0.00 0.00 69 1009.9
20260506041536 68 11 2.6 10.4 0.00 0.00 0.00 69 1009.8
20260506041018 68 360 1.7 9.6 0.00 0.00 0.00 69 1009.8
20260506040522 68 0 0.9 5.2 0.00 0.00 0.00 69 1009.8
20260506040056 69 0 0.9 7.0 0.00 0.00 0.00 69 1010.1
20260506035522 69 5 2.6 7.0 0.00 0.00 0.00 68 1009.8
20260506035022 69 5 1.7 7.0 0.00 0.00 0.00 68 1009.7
20260506034558 69 5 1.7 7.0 0.00 0.00 0.00 68 1009.8
20260506034022 70 304 1.7 6.1 0.00 0.00 0.00 68 1009.7
20260506033522 70 350 1.7 7.0 0.00 0.00 0.00 68 1009.6
20260506033039 70 34 0.9 7.0 0.00 0.00 0.00 68 1009.3
20260506032522 70 5 1.7 4.3 0.00 0.00 0.00 68 1009.3
20260506032022 70 304 0.9 3.5 0.00 0.00 0.00 68 1009.1
20260506031553 70 0 0.9 3.5 0.00 0.00 0.00 68 1008.9
20260506031025 71 0 0.0 7.8 0.00 0.00 0.00 68 1008.7
20260506030522 71 0 0.0 7.8 0.00 0.00 0.00 67 1008.6
20260506030038 71 22 1.7 5.2 0.00 0.00 0.00 67 1008.6
20260506025520 71 0 0.9 4.3 0.00 0.00 0.00 67 1008.3
20260506025021 71 329 0.0 1.7 0.00 0.00 0.00 66 1008.1
20260506024537 71 0 0.0 2.6 0.00 0.00 0.00 66 1008.0
20260506024020 71 0 0.0 3.5 0.00 0.00 0.00 66 1008.1
20260506023523 71 5 0.9 3.5 0.00 0.00 0.00 66 1008.1
20260506023040 72 314 0.0 3.5 0.00 0.00 0.00 65 1007.9
20260506022521 72 323 0.0 4.3 0.00 0.00 0.00 64 1007.8
20260506022020 72 346 0.9 4.3 0.00 0.00 0.00 64 1007.5
20260506021538 73 323 0.0 4.3 0.00 0.00 0.00 64 1007.4
20260506021022 73 311 0.9 8.7 0.00 0.00 0.00 64 1007.5
20260506020521 73 0 1.7 8.7 0.00 0.00 0.00 63 1007.4
20260506020039 74 321 0.9 2.6 0.00 0.00 0.00 64 1007.4
20260506015522 74 0 0.0 5.2 0.00 0.00 0.00 63 1007.1
20260506015019 74 0 0.0 5.2 0.00 0.00 0.00 63 1007.0
20260506014535 75 332 0.9 4.3 0.00 0.00 0.00 62 1006.9
20260506014021 75 0 0.0 4.3 0.00 0.00 0.00 61 1006.9
20260506013521 75 5 0.9 4.3 0.00 0.00 0.00 62 1006.6
20260506013037 76 279 0.9 6.1 0.00 0.00 0.00 61 1006.5